Cecil Field, FL

3:12 PM EDT on July 28, 2017 (GMT -0400)
Cecil

Weather History for KVQQ - July, 2013

Change the Weather History Date:

Saturday, July 13, 2013

  Actual Average (KNIP) Record (KNIP)
Temperature  
Mean Temperature 75 °F -  
Max Temperature 82 °F 88 °F 99 °F (2015)
Min Temperature 68 °F 73 °F 71 °F (1997)
Cooling Degree Days 10    
Growing Degree Days 25 (Base 50)    
Moisture  
Dew Point 72 °F    
Average Humidity 98    
Maximum Humidity 100    
Minimum Humidity 74    
Precipitation  
Precipitation 0.00 in - - ()
Sea Level Pressure  
Sea Level Pressure 29.96 in    
Wind  
Wind Speed 2 mph (South)    
Max Wind Speed 8 mph    
Max Gust Speed -    
Visibility 7 miles    
Events Rain    
Averages and records for this station are not official NWS values.
T = Trace of Precipitation, MM = Missing Value Source: NWS Daily Summary

Daily Weather History Graph

Daily Weather History Graph

Search for Another Location

Airport or City:

Trip Planner

Search our weather history database for the weather conditions in past years. The results will help you decide how hot, cold, wet, or windy it might be!

Date:

Astronomy

Jul. 13, 2013 Rise Set
Actual Time 6:35 AM EDT 8:31 PM EDT
Civil Twilight 6:08 AM EDT 8:58 PM EDT
Nautical Twilight 5:35 AM EDT 9:30 PM EDT
Astronomical Twilight 5:00 AM EDT 10:05 PM EDT
Moon 11:24 AM EDT (7/13) 11:39 PM EDT (7/13)
Length of Visible Light 14h 49m
Length of Day
13h 55m
Waxing Crescent, 25% of the Moon is Illuminated
Jul 13
Waxing Crescent
Jul 15
First Quarter
Jul 22
Full
Jul 29
Last Quarter
Aug 6
New

Hourly Weather History & Observations

Time (EDT) Temp. Heat Index Dew Point Humidity Pressure Visibility Wind Dir Wind Speed Gust Speed Precip Events Conditions
12:15 AM 75.2 °F - 75.2 °F 100% 29.94 in 7.0 mi South 3.5 mph - N/A Rain Light Rain
12:35 AM 73.4 °F - 73.4 °F 100% 29.94 in 7.0 mi South 5.8 mph - N/A Rain Light Rain
12:55 AM 73.4 °F - 73.4 °F 100% 29.93 in 10.0 mi SSW 4.6 mph - N/A   Clear
1:15 AM 73.4 °F - 73.4 °F 100% 29.93 in 10.0 mi Calm Calm - N/A   Clear
1:35 AM 73.4 °F - 73.4 °F 100% 29.92 in 8.0 mi Calm Calm - N/A   Clear
1:55 AM 73.4 °F - 73.4 °F 100% 29.92 in 10.0 mi Calm Calm - N/A   Clear
2:15 AM 73.4 °F - 73.4 °F 100% 29.92 in 9.0 mi Calm Calm - N/A   Clear
2:35 AM 71.6 °F - 71.6 °F 100% 29.92 in 7.0 mi Calm Calm - N/A   Clear
2:55 AM 71.6 °F - 71.6 °F 100% 29.92 in 5.0 mi Calm Calm - N/A   Partly Cloudy
3:15 AM 71.6 °F - 71.6 °F 100% 29.93 in 7.0 mi Calm Calm - N/A   Clear
3:35 AM 71.6 °F - 71.6 °F 100% 29.93 in 5.0 mi Calm Calm - N/A   Clear
3:55 AM 71.6 °F - 71.6 °F 100% 29.93 in 7.0 mi Calm Calm - N/A   Clear
4:15 AM 71.6 °F - 71.6 °F 100% 29.94 in 7.0 mi Calm Calm - N/A   Clear
4:35 AM 71.6 °F - 71.6 °F 100% 29.94 in 6.0 mi Calm Calm - N/A   Clear
4:55 AM 71.6 °F - 71.6 °F 100% 29.95 in 4.0 mi Calm Calm - N/A   Clear
5:15 AM 71.6 °F - 71.6 °F 100% 29.94 in 1.2 mi Calm Calm - N/A   Clear
5:35 AM 69.8 °F - 69.8 °F 100% 29.94 in 3.0 mi Calm Calm - N/A   Mostly Cloudy
5:55 AM 71.6 °F - 71.6 °F 100% 29.94 in 2.5 mi Calm Calm - N/A   Mostly Cloudy
6:15 AM 69.8 °F - 69.8 °F 100% 29.94 in 5.0 mi Calm Calm - N/A   Partly Cloudy
6:35 AM 69.8 °F - 69.8 °F 100% 29.94 in 4.0 mi Calm Calm - N/A   Clear
6:50 AM 69.8 °F - 69.8 °F 100% 29.95 in 4.0 mi Calm Calm - N/A   Scattered Clouds
7:50 AM 73.4 °F - 73.4 °F 100% 29.95 in 10.0 mi Calm Calm - N/A   Clear
8:50 AM 75.2 °F - 75.2 °F 100% 29.97 in 10.0 mi SSE 4.6 mph - N/A   Clear
9:50 AM 80.6 °F 86.2 °F 75.2 °F 84% 29.98 in 10.0 mi South 5.8 mph - N/A   Mostly Cloudy
10:50 AM 82.4 °F 88.2 °F 73.4 °F 74% 29.98 in 10.0 mi South 4.6 mph - N/A   Mostly Cloudy
11:50 AM 82.4 °F 88.2 °F 73.4 °F 74% 29.98 in 10.0 mi SSE 5.8 mph - N/A   Mostly Cloudy
12:50 PM 75.2 °F - 73.4 °F 94% 29.97 in 10.0 mi SSW 8.1 mph - N/A   Mostly Cloudy
1:50 PM 75.2 °F - 75.2 °F 100% 29.97 in 7.0 mi Variable 4.6 mph - N/A   Mostly Cloudy
2:50 PM 75.2 °F - 75.2 °F 100% 29.97 in 7.0 mi West 8.1 mph - N/A Rain Light Rain
3:50 PM 73.4 °F - 73.4 °F 100% 29.98 in 4.0 mi Variable 3.5 mph - N/A Rain Light Rain
4:50 PM 71.6 °F - 71.6 °F 100% 29.98 in 4.0 mi Variable 3.5 mph - N/A Rain Light Rain
5:50 PM 71.6 °F - 71.6 °F 100% 30.00 in 3.0 mi East 4.6 mph - N/A Rain Rain
6:50 PM 71.6 °F - 71.6 °F 100% 29.99 in 7.0 mi SSE 4.6 mph - N/A Rain Light Rain
7:50 PM 71.6 °F - 71.6 °F 100% 29.98 in 4.0 mi Variable 3.5 mph - N/A Rain Light Rain
8:15 PM 71.6 °F - 71.6 °F 100% 29.96 in 7.0 mi Calm Calm - N/A Rain Light Rain
8:35 PM 71.6 °F - 71.6 °F 100% 29.96 in 9.0 mi Calm Calm - N/A Rain Light Rain
8:55 PM 71.6 °F - 71.6 °F 100% 29.96 in 10.0 mi Calm Calm - N/A   Clear
9:15 PM 71.6 °F - 71.6 °F 100% 29.96 in 10.0 mi Calm Calm - N/A   Clear
9:35 PM 71.6 °F - 71.6 °F 100% 29.98 in 10.0 mi SSE 4.6 mph - N/A   Clear
9:55 PM 69.8 °F - 69.8 °F 100% 29.99 in 10.0 mi Calm Calm - N/A   Clear
10:15 PM 69.8 °F - 69.8 °F 100% 30.00 in 10.0 mi Calm Calm - N/A   Clear
10:35 PM 69.8 °F - 69.8 °F 100% 30.01 in 10.0 mi Calm Calm - N/A   Clear
10:55 PM 69.8 °F - 69.8 °F 100% 30.01 in 9.0 mi Calm Calm - N/A   Clear
11:15 PM 69.8 °F - 69.8 °F 100% 30.02 in 7.0 mi Calm Calm - N/A   Clear
11:35 PM 68.0 °F - 68.0 °F 100% 30.02 in 5.0 mi Calm Calm - N/A   Clear
11:55 PM 68.0 °F - 68.0 °F 100% 30.03 in 9.0 mi Calm Calm - N/A   Clear